Skip Page Navigation
NASA JPL Caltech
NASA Logo - Jet Propulsion Laboratory + View the NASA Portal
+ Near-Earth Object (NEO) Program
Search JPL
JPL Home Earth Solar System Stars & Galaxies Technology
JPL Solar System Dynamics
BODIES ORBITS EPHEMERIDES TOOLS PHYSICAL DATA DISCOVERY FAQ SITE MAP
JPL Small-Body Database Browser
Search: [ help ]  
2992 Vondel (2540 P-L)
Classification: Main-belt Asteroid          SPK-ID: 2002992
Ephemeris | Orbit Diagram | Orbital Elements | Physical Parameters | Discovery Circumstances | Close-Approach Data ]

[ show orbit diagram ]
Orbital Elements at Epoch 2456400.5 (2013-Apr-18.0) TDB
Reference: JPL 1 (heliocentric ecliptic J2000)
 Element Value Uncertainty (1-sigma)   Units 
e .1867080834038783 5.3584e-08  
a 2.748227673162723 1.5061e-08 AU
q 2.235111351549011 1.4353e-07 AU
i 7.047204285488641 7.9467e-06 deg
node 185.0056472585347 4.741e-05 deg
peri 267.6278021752061 5.4079e-05 deg
M 135.225511577347 2.2493e-05 deg
tp 2455775.422852178274
(2011-Aug-01.92285218)
0.00010342 JED
period 1664.092600508366
4.56
1.3679e-05
3.745e-08
d
yr
n .2163341149945761 1.7783e-09 deg/d
Q 3.261343994776435 1.7873e-08 AU
  Orbit Determination Parameters
   # obs. used (total)      962  
   data-arc span      19203 days (52.57 yr)  
   first obs. used      1960-09-24  
   last obs. used      2013-04-22  
   planetary ephem.      DE405  
   SB-pert. ephem.      SB405-CPV-2  
   condition code      0  
   fit RMS      .55522  
   data source      ORB  
   producer      Otto Matic  
   solution date      2013-Apr-29 12:55:11  

Additional Information
 Earth MOID = 1.26429 AU 
 T_jup = 3.311 
[ show covariance matrix ]

Ephemeris | Orbit Diagram | Orbital Elements | Physical Parameters | Discovery Circumstances | Close-Approach Data ]

Physical Parameter Table
Parameter Symbol Value Units Sigma Reference Notes
absolute magnitude H 13.0 mag n/a PDS3 (MPC 17267)  

2992 Vondel (2540 P-L)          Discovered 1960-Sep-24 by PLS at Palomar (675)
These planets have all been discovered as a result of the Palomar survey of faint minor planets and subsequently identified with planets observed at other oppositions. In Sept. and Oct. 1960, T. Gehrels exposed 130 plates with the 122 cm Schmidt camera at Palomar. In the following years C. J. van Houten and I. van Houten-Groeneveld measured these plates astrometrically and photometrically at Leiden. P. Herget, Cincinnati, computed the orbits of the planets found on the NORC computer, Dahlgren, Virginia, USA.
Note: "planet" implies "minor planet"
Reference: DISCOVERY.DBLast Updated: 2003-08-29

[ show close-approach data ]
Alternate Designations
 2540 P-L = 1978 QV1 
Ephemeris | Orbit Diagram | Orbital Elements | Physical Parameters | Discovery Circumstances | Close-Approach Data ]
ABOUT SSD CREDITS/AWARDS PRIVACY/COPYRIGHT GLOSSARY LINKS
FirstGov 2013-May-22 21:32 UT
(server date/time)  
NASA Home Page
Site Manager:   Donald K. Yeomans
Webmaster  Alan B. Chamberlin